Torna al catalogo

SL-12 DEB

LostHEO
NORAD 27992·DEBRIS·🇷🇺 Russia

Lanciato Sep 16, 1988 da Baikonur Cosmodrome

Loading…

Prossimi Passaggi (prossime 24 ore)

TLE

ObsoletoSource: Space-Track

Epoca: May 8, 2006, 10:11 UTC

1 27992U 88085AN  06128.42432250 -.00000008 +00000-0 +10000-3 0  9990
2 27992 064.2163 246.3969 5362408 024.4019 353.5677 04.49145847046349

Traccia SL-12 DEB in tempo reale con AllMySat

Download on the App Store